Flag for Aruba Weather past 2 weeks in Oranjestad, Aruba

Now
84 °F

Passing clouds.


Feels Like: 92 °F
Forecast: 83 / 92 °F
Wind: 20 mph from East

Location: Queen Beatrix Airport - Aruba

Current Time: Sep 20, 2014 at 8:28:48 PM

Latest Report: Sep 20, 2014 at 8:00 PM


Visibility: N/A

Pressure: 29.86 "Hg

Humidity: 74%

Dew point: 75 °F

Location of OranjestadLocation

Historic Weather in Oranjestad — Graph

°F

Oranjestad temperature yesterday

Maximum temperature yesterday: 91 °F (at 1:00 PM)
Minimum temperature yesterday: 82 °F (at 12:00 AM)
Average temperature yesterday: 86 °F

Past Weeks' High & Low Weather Summary

 TemperatureHumidityPressure
High93 °F (Sep 7, 2:00 PM)100% (Sep 12, 12:00 PM)29.98 "Hg (Sep 12, 12:00 PM)
Low75 °F (Sep 12, 12:00 PM)55% (Sep 10, 11:00 AM)29.74 "Hg (Sep 6, 5:00 PM)
Average85 °F73%29.85 "Hg
* Reported Sep 5 7:00 PM — Sep 20 7:00 PM, Oranjestad, Weather by CustomWeather, © 2014

Note: Actual official high and low records may vary slightly from our data, if they occured in-between our weather recording intervals... More about our weather records

Advertising

Oranjestad weather history for previous 24 hours

 ConditionsComfort  
Time TempWeatherWind HumidityBarometerVisibility
7:00 PM
Sep 20
84 °FPassing clouds.20 mph79%29.80 "HgN/A
6:00 PM86 °FPassing clouds.16 mph70%29.77 "HgN/A
5:00 PM88 °FPassing clouds.21 mph66%29.77 "HgN/A
4:00 PM90 °FPassing clouds.21 mph63%29.77 "HgN/A
3:00 PM91 °FPassing clouds.23 mph59%29.77 "HgN/A
2:00 PM90 °FPassing clouds.22 mph63%29.80 "HgN/A
1:00 PM91 °FScattered clouds.20 mph59%29.83 "HgN/A
9:00 AM88 °FScattered clouds.18 mph66%29.89 "HgN/A
8:00 AM86 °FPassing clouds.13 mph75%29.86 "HgN/A
7:00 AM82 °FPassing clouds.7 mph79%29.86 "HgN/A
6:00 AM81 °FPassing clouds.6 mph84%29.83 "HgN/A
5:00 AM82 °FPassing clouds.8 mph79%29.83 "HgN/A
4:00 AM82 °FPassing clouds.12 mph79%29.80 "HgN/A
3:00 AM82 °FPassing clouds.10 mph84%29.83 "HgN/A
2:00 AM82 °FPassing clouds.10 mph84%29.83 "HgN/A
12:00 AM82 °FPassing clouds.12 mph79%29.86 "HgN/A
11:00 PM
Sep 19
84 °FPassing clouds.12 mph79%29.86 "HgN/A
10:00 PM84 °FPassing clouds.13 mph79%29.86 "HgN/A
9:00 PM84 °FPassing clouds.16 mph79%29.83 "HgN/A
8:00 PM84 °FPassing clouds.17 mph79%29.80 "HgN/A
Weather by CustomWeather, © 2014

See weather overviewHow to use our weather pages